Regional Weather Roundup
Issued by NWS

Home | Current Version | Previous Version | Text Only | Print | Product List | Glossary Off
Versions: 1 2 3 4 5 6 7 8 9 10 11 12 13 14 15 16 17 18 19 20 21 22 23 24 25 26 27 28 29 30 31 32 33 34 35 36 37 38 39 40 41 42 43 44 45 46 47 48 49 50

000
ASUS45 KSLC 222210
RWRUT

UTAH REGIONAL WEATHER ROUNDUP
NATIONAL WEATHER SERVICE SALT LAKE CITY UT
400 PM MDT FRI AUG 22 2014

UTZ001>011-023>025-222300-

NORTHERN UTAH

CITY           SKY/WX    TMP DP  RH WIND       PRES   REMARKS
HILL AFB       CLOUDY    64  57  77 N12       29.97F
LOGAN          LGT RAIN  61  54  77 N14       30.04S
OGDEN          RAIN      63  54  72 N16G22    29.95F
PROVO AIRPORT  MOSUNNY   84  48  28 S9        29.89F
SALT LAKE CITY CLOUDY    70  57  63 N18       29.90F
VERNAL         PTSUNNY   77  44  30 CALM      29.98F
WENDOVER       MOSUNNY   73  48  40 SE10      29.93F
HEBER CITY     MOSUNNY   82  39  21 SW17      29.94F
WEST JORDAN    PTSUNNY   70  61  73 N12       29.94F

$$

UTZ012>022-026-027-222300-

SOUTHERN UTAH

CITY           SKY/WX    TMP DP  RH WIND       PRES   REMARKS
BRYCE CANYON   CLOUDY    63  49  60 E6        30.20F
CEDAR CITY     MOSUNNY   78  45  30 SW17G25   30.05F
MILFORD        MOSUNNY   84  45  25 S25G36    29.98F
MOAB/CYNLANDS  CLOUDY    75  51  43 W8        29.98R
PRICE          PTSUNNY   78  43  28 SE10G22   30.03F
ST GEORGE      PTCLDY    88  52  29 SW5       29.94F
KANAB            N/A     79  48  34 S14       30.08F

$$

REGIONAL REPORTS     COLORADO/ARIZONA

CITY           SKY/WX    TMP DP  RH WIND       PRES   REMARKS
CRAIG, CO      CLOUDY    63  54  72 N6        30.11F
GRAND JUNCTION PTSUNNY   74  57  55 E9        30.01F
RIFLE          CLOUDY    75  48  38 E8        30.03F
MONTROSE       LGT RAIN  71  54  54 NW10      30.11S
CORTEZ         HVY RAIN  56  53  90 SE8       30.18R FOG
PAGE, AZ       CLOUDY    81  47  30 VRB6      30.01F
GRAND CANYON   MOSUNNY   70  43  37 S15G23    30.20F
KINGMAN        PTSUNNY   82  52  35 SW10      30.01F
FLAGSTAFF      MOSUNNY   64  48  56 SW14      30.23F

$$

REGIONAL REPORTS    NEVADA/IDAHO/WYOMING

CITY           SKY/WX    TMP DP  RH WIND       PRES   REMARKS
LAS VEGAS, NV  MOSUNNY   91  51  25 S12G22    29.83F
ELY            LGT RAIN  63  48  58 W6        30.02S
ELKO           MOSUNNY   80  33  18 W14G23    29.92F
POCATELLO, ID  LGT RAIN  58  53  84 E8        29.99F
BURLEY         LGT RAIN  57  51  80 S10       29.97R
EVANSTON, WY   PTSUNNY   60  47  61 N22G29    30.09S
ROCK SPRINGS   TSTM      64  49  57 N3        30.06R

$$


USA.gov is the U.S. government's official web portal to all federal, state and local government web resources and services.